{"data":{"norad_id":58241,"intl_designator":"2023-171M","name":"STARLINK-30843","alt_names":[],"object_type":"PAYLOAD","status":"ACTIVE","operator":null,"country":"US","launch_date":"2023-11-08","launch_site_code":"AFETR","launch_vehicle":null,"mission":null,"orbit_class":"UNKNOWN","rcs_meters":null,"size_class":null,"mass_kg":null,"dimensions":null,"purposes":["comms"],"wikipedia_slug":null,"has_3d_model":false,"image_url":null,"decayed_at":null,"tle_current":{"epoch":"2026-09-20T08:23:59.880768Z","epoch_age_seconds":156611,"freshness":"FRESH","line1":"1 58241U 23171M   26263.34999862  .00001178  00000+0  52308-4 0  9991","line2":"2 58241  43.0019 266.0218 0001298 271.2850  88.7853 15.27580357159523","mean_motion":15.27580357,"eccentricity":0.0001298,"inclination_deg":43.0019,"raan_deg":266.0218,"arg_perigee_deg":271.285,"mean_anomaly_deg":88.7853,"bstar":5.2308e-5,"rev_number":15952,"period_min":94.266726683237,"perigee_km":482.15744523692,"apogee_km":483.93860886994,"semimajor_km":6861.1850270534,"source":"CELESTRAK","updated_at":"2026-09-21T09:00:33.838178Z"}}}